Location: Hohe Wand Kleine Kanzel
(47.8330°N, 16.0170°E)
Time: 17:08:37
(UTC+02:00)

Vanguard 3 - Pass Details

Date: 07 August 2021
Orbit: 510 x 3260 km, 33.4° (Epoch: 23 September)

Event Time Altitude Azimuth Distance (km) Brightness Sun altitude
Rises 21:24:17 0° 269° (W) 5,967 12.5 -9.7°
Reaches altitude 10° 21:28:08 10° 262° (W) 5,277 11.9 -10.2°
Maximum altitude 21:42:56 39° 201° (SSW) 4,119 10.5 -12.2°
Enters shadow 21:57:52 15° 146° (SE) 5,705 10.8 -14.0°
